星链-4502 (STARLINK-4502 )

导读

STARLINK-4502是美国太空探索技术公司SpaceX于2022年8月19日发射的星链(Starlink)低轨通信卫星,属于星链星座组网计划的组成部分。星链项目旨在为全球提供宽带互联网服务,星链卫星采用平板设计,配备氪工质霍尔推进器和太阳能电池阵,具备自主避撞能力,寿命末期会主动离轨再入大气层烧毁,减少太空垃圾影响。

基本信息
目录编号:
53557
目录名称:
STARLINK-4502
国际标识:
2022-101AG
轨道中心:
EARTH
卫星名称:
星链-4502
卫星全名:
星链-4502 (STARLINK-4502 )
卫星状态:
在轨 (已飞行1485 天)
发射日期:
2022-08-19 UTC
国别 :
美国 (US)
星等 :
--
该卫星已列入 空间交会检测服务 Space Conjunction Data Service (SCDS) ,当前飞行风险评估等级: 无高风险
轨道信息
数据来源 国际轨道数据
星历时间: 2026-09-12T04:43:31+0800
13小时前
查看轨道信息
半长轴: 6917.91km
偏心率: 0.0001083
轨道倾角: 53.161°
近地点辐角 83.472°
升交点赤经 307.745°
平近点角 276.640°
近地点: 539.023km
远地点: 540.523km
周期: 95.438分钟
每日圈数: 15.088306
详细信息
固有亮度:
5
最大亮度:
2.5
卫星平台:
Starlink v1.5
覆盖范围:
全球
运营商:
太空探索技术公司
运营商所在国:
美国
制造商(研发单位):
太空探索技术公司
制造商所在国:
美国
使用方式:
暂无
卫星简介
星链(Starlink)计划是由太空探索技术公司(SpaceX)提出的一个巨型低轨卫星互联网星座项目,计划在2019年至2024年间在太空搭建由约1.2万颗卫星组成的“星链”网络,其中1584颗将部署在地球上空550千米处的近地轨道,并从2020年开始工作。该卫星仍在工作。
2D轨道图
3D轨道图
轨道高度分析图
轨道倾角分析图
轨道综合分析图
查看轨道综合分析图
交会数据列表
事件ID 空间交会对象 最接近时刻(TCA) 交会距离 交会风险概率(CRP) 交会风险指数(CRI) 操作
CDM_260913-181600-036905-355724
2026-09-13T
18:16:37+0000
1.896 km
极远距离
2.237993E-6 低风险 0.42
与全量物体交会距离演化趋势
与全量物体交会风险概率演化趋势